Delhi/Indira Gandhi International (IGI) Airport

Airport
ICAO code: 
VIDP
IATA Code: 
DEL
Summary
ICAO Region: 
APAC
Territory: 
Location: 
Palam, National Capitol Region of Delhi
Serving: 
New Delhi
Elevation: 
777 ft
Coordinates: 
Aerial View: 
28° 33' 29.916" N, 77° 5' 38.472" E
Airport BS: 
Bird Strike
Airport LOS: 
Parallel Runway Operation
Metar
Observation
VIDP 270200Z 24004KT 0600 R28/1700 R29/1700 MIFG NSC 08/07 Q1017 NOSIG
Station
New Delhi / Palam
Date/Time
2022-01-27 02:00:00
Wind direction
240°
Wind speed
04 kts
Lowest cloud amount
nil significant cloud
Temperature
8°C
Dew point
7°C
Humidity
93%
QNH
1017 hPa
Weather condition
n/a

International airport serving the city of New Delhi.

Climatology

Humid “subtropical” climate (Köppen climate classification Cwa) - characterized by hot, humid summers and cool winters.

Overnight radiation fog in winter is a well-recognised problem.

Runways

Designator Length Width Surface Rops
9/27 2813 46 ASP Yes/Yes
10/28 3810 46 ASP Yes/Yes
11/29 4430 60 paved Yes/Yes

SKYbrary Partners:

Safety knowledge contributed by: